Satellite-Ground Cal/Val Region Overpasses Predictions

Prediction of Satellite NPP Overpassing Cal/Val Region: PacNW

Region Location: (Latitude: 10.00, Longitude: 139.50) to (Latitude: 22.70, Longitude: 165.60).

Table of predicted overpasses for the next 14.0 days since TLE Epoch: 1/17/2021
Interval Starting Time Starting Location Ending Time Ending Location
1 01/17/2021 14:58:07 ( 22.65, 160.29) 01/17/2021 15:01:42 ( 10.03, 157.29)
2 01/18/2021 02:09:54 ( 19.54, 165.59) 01/18/2021 02:10:47 ( 22.65, 164.82)
3 01/18/2021 03:48:42 ( 10.03, 142.44) 01/18/2021 03:52:13 ( 22.42, 139.50)
4 01/18/2021 14:39:04 ( 22.69, 165.06) 01/18/2021 14:42:40 ( 10.01, 162.04)
5 01/18/2021 16:20:34 ( 22.69, 139.68) 01/18/2021 16:20:46 ( 21.98, 139.50)
6 01/19/2021 03:29:40 ( 10.05, 147.20) 01/19/2021 03:33:15 ( 22.67, 144.19)
7 01/19/2021 16:01:33 ( 22.67, 144.43) 01/19/2021 16:05:08 ( 10.05, 141.43)
8 01/20/2021 03:10:38 ( 10.01, 151.96) 01/20/2021 03:14:14 ( 22.70, 148.95)
9 01/20/2021 15:42:32 ( 22.65, 149.18) 01/20/2021 15:46:07 ( 10.03, 146.18)
10 01/21/2021 02:51:36 ( 10.03, 156.71) 01/21/2021 02:55:11 ( 22.66, 153.71)
11 01/21/2021 15:23:29 ( 22.68, 153.95) 01/21/2021 15:27:05 ( 10.01, 150.94)
12 01/22/2021 02:32:35 ( 10.06, 161.47) 01/22/2021 02:36:10 ( 22.68, 158.46)
13 01/22/2021 15:04:28 ( 22.66, 158.70) 01/22/2021 15:08:03 ( 10.04, 155.70)
14 01/23/2021 02:14:19 ( 12.78, 165.60) 01/23/2021 02:17:07 ( 22.64, 163.23)
15 01/23/2021 03:55:02 ( 10.02, 140.86) 01/23/2021 03:56:41 ( 15.84, 139.51)
16 01/23/2021 14:45:26 ( 22.64, 163.45) 01/23/2021 14:49:01 ( 10.02, 160.45)
17 01/24/2021 03:36:01 ( 10.05, 145.61) 01/24/2021 03:39:36 ( 22.67, 142.61)
18 01/24/2021 14:29:31 ( 11.70, 165.60) 01/24/2021 14:30:00 ( 10.00, 165.21)
19 01/24/2021 16:07:54 ( 22.67, 142.84) 01/24/2021 16:11:29 ( 10.05, 139.84)
20 01/25/2021 03:16:58 ( 10.01, 150.37) 01/25/2021 03:20:34 ( 22.69, 147.36)
21 01/25/2021 15:48:52 ( 22.65, 147.60) 01/25/2021 15:52:27 ( 10.03, 144.59)
22 01/26/2021 02:57:57 ( 10.04, 155.12) 01/26/2021 03:01:32 ( 22.66, 152.12)
23 01/26/2021 15:29:50 ( 22.69, 152.36) 01/26/2021 15:33:26 ( 10.01, 149.35)
24 01/27/2021 02:38:54 ( 10.00, 159.89) 01/27/2021 02:42:30 ( 22.68, 156.87)
25 01/27/2021 15:10:48 ( 22.66, 157.11) 01/27/2021 15:14:23 ( 10.04, 154.11)
26 01/28/2021 02:19:53 ( 10.03, 164.64) 01/28/2021 02:23:28 ( 22.65, 161.64)
27 01/28/2021 14:51:46 ( 22.70, 161.88) 01/28/2021 14:55:22 ( 10.02, 158.86)
28 01/29/2021 03:42:22 ( 10.06, 144.02) 01/29/2021 03:45:57 ( 22.68, 141.01)
29 01/29/2021 14:33:56 ( 18.45, 165.59) 01/29/2021 14:36:19 ( 10.05, 163.63)
30 01/29/2021 16:14:14 ( 22.67, 141.25) 01/29/2021 16:16:17 ( 15.45, 139.50)
31 01/30/2021 03:23:19 ( 10.03, 148.78) 01/30/2021 03:26:54 ( 22.65, 145.78)
32 01/30/2021 15:55:12 ( 22.70, 146.02) 01/30/2021 15:58:48 ( 10.02, 143.00)
